User: anonymous   Login
Location: Sternwarte Stuttgart
(48.7670°N, 9.1830°E)
Time: 00:47:06
(UTC+02:00)
Language:

SKYMED 2 - Orbit

View from above orbital plane
View from above orbital plane
View from above satellite
View from above satellite

Ground track
Ground track

The orbit data is extracted from the following two-line orbital elements,

1 32376U 07059A   19107.77732657 -.00000139 +00000-0 -10907-4 0  9990
2 32376 097.8916 292.0262 0001668 086.1531 273.9872 14.82150687614372
Epoch (UTC): 17 April 2019 18:39:21
Eccentricity: 0.0001668
inclination: 97.8916°
perigee height: 621 km
apogee height: 624 km
right ascension of ascending node: 292.0262°
argument of perigee: 86.1531°
revolutions per day: 14.82150687
mean anomaly at epoch: 273.9872°
orbit number at epoch: 61437

The dashed part of the orbit path shows where the satellite is in the earth's shadow,  

DLR